Weather History for Gulf Shores, AL

Change the Weather History Date:

Sunday, July 7, 2013

  Actual Average (KPNS) Record (KPNS)
Temperature  
Mean Temperature 76 °F 82 °F  
Max Temperature 80 °F 90 °F 100 °F (1980)
Min Temperature 71 °F 75 °F 66 °F (1882)
Cooling Degree Days 10 17  
Month to date cooling degree days 119  
Year to date cooling degree days 1032  
Since 1 June cooling degree days 584  
Growing Degree Days 26 (Base 50)    
Moisture  
Dew Point 72 °F    
Average Humidity 83    
Maximum Humidity 94    
Minimum Humidity 74    
Precipitation  
Precipitation 0.71 in 0.23 in 5.01 in (1896)
Month to date precipitation 1.65  
Year to date precipitation 32.25  
Sea Level Pressure  
Sea Level Pressure 30.09 in    
Wind  
Wind Speed 4 mph (SE)    
Max Wind Speed 13 mph    
Max Gust Speed 24 mph    
Visibility 10 miles    
Events Rain    
T = Trace of Precipitation, MM = Missing Value Source: NWS Daily Summary

Daily Weather History Graph

Daily Weather History Graph

Search for Another Location

Airport:

Trip Planner

Search our weather history database for the weather conditions in past years. The results will help you decide how hot, cold, wet, or windy it might be!

Date:

Astronomy

Jul. 07, 2013 Rise Set
Actual Time 5:55 AM CDT 7:55 PM CDT
Civil Twilight 5:27 AM CDT 8:23 PM CDT
Nautical Twilight 4:54 AM CDT 8:56 PM CDT
Astronomical Twilight 4:19 AM CDT 9:31 PM CDT
Moon 5:26 AM CDT (7/7) 7:25 PM CDT (7/7)
Length of Visible Light 14h 55m
Length of Day
14h 00m
Waning Crescent, 0% of the Moon is Illuminated
Jul 7
Waning Crescent
Jul 8
New
Jul 15
First Quarter
Jul 22
Full
Jul 29
Last Quarter

Hourly Weather History & Observations

Time (CDT) Temp. Heat Index Dew Point Humidity Pressure Visibility Wind Dir Wind Speed Gust Speed Precip Events Conditions
12:15 AM 77.0 °F - 71.6 °F 83% 30.06 in 10.0 mi SE 6.9 mph - N/A   Scattered Clouds
12:35 AM 77.0 °F - 71.6 °F 83% 30.06 in 10.0 mi SE 5.8 mph - N/A   Scattered Clouds
12:55 AM 77.0 °F - 69.8 °F 78% 30.06 in 10.0 mi SSE 4.6 mph - N/A   Scattered Clouds
1:15 AM 77.0 °F - 71.6 °F 83% 30.05 in 10.0 mi SSE 5.8 mph - N/A   Mostly Cloudy
1:35 AM 78.8 °F - 71.6 °F 78% 30.05 in 10.0 mi SSE 6.9 mph - N/A   Mostly Cloudy
1:55 AM 78.8 °F - 71.6 °F 78% 30.05 in 10.0 mi SSE 6.9 mph - N/A   Mostly Cloudy
2:15 AM 78.8 °F - 71.6 °F 78% 30.04 in 10.0 mi SSE 5.8 mph - N/A   Mostly Cloudy
2:35 AM 78.8 °F - 71.6 °F 78% 30.04 in 10.0 mi SSE 3.5 mph - N/A   Mostly Cloudy
2:55 AM 78.8 °F - 71.6 °F 78% 30.04 in 10.0 mi South 5.8 mph - N/A   Mostly Cloudy
3:15 AM 78.8 °F - 71.6 °F 78% 30.04 in 10.0 mi South 5.8 mph - N/A   Mostly Cloudy
3:35 AM 78.8 °F - 71.6 °F 78% 30.03 in 10.0 mi South 8.1 mph - N/A   Scattered Clouds
3:55 AM 77.0 °F - 71.6 °F 83% 30.04 in 10.0 mi SW 4.6 mph - N/A   Scattered Clouds
4:15 AM 77.0 °F - 71.6 °F 83% 30.04 in 10.0 mi WSW 5.8 mph - N/A   Mostly Cloudy
4:35 AM 77.0 °F - 71.6 °F 83% 30.04 in 10.0 mi Calm Calm - N/A   Mostly Cloudy
4:55 AM 77.0 °F - 71.6 °F 83% 30.04 in 10.0 mi Calm Calm - N/A   Mostly Cloudy
5:15 AM 75.2 °F - 71.6 °F 89% 30.04 in 10.0 mi Calm Calm - N/A   Scattered Clouds
5:35 AM 75.2 °F - 71.6 °F 89% 30.05 in 10.0 mi Calm Calm - 0.01 in   Mostly Cloudy
5:55 AM 73.4 °F - 71.6 °F 94% 30.05 in 10.0 mi Calm Calm - 0.01 in   Overcast
6:15 AM 73.4 °F - 71.6 °F 94% 30.06 in 10.0 mi Calm Calm - N/A   Mostly Cloudy
6:35 AM 73.4 °F - 71.6 °F 94% 30.06 in 10.0 mi Calm Calm - N/A   Clear
6:55 AM 75.2 °F - 71.6 °F 89% 30.07 in 10.0 mi Calm Calm - N/A   Scattered Clouds
7:15 AM 77.0 °F - 71.6 °F 83% 30.07 in 10.0 mi Calm Calm - N/A   Scattered Clouds
7:35 AM 77.0 °F - 71.6 °F 83% 30.08 in 10.0 mi NE 3.5 mph - N/A   Mostly Cloudy
7:55 AM 77.0 °F - 71.6 °F 83% 30.08 in 10.0 mi Calm Calm - N/A   Mostly Cloudy
8:15 AM 78.8 °F - 71.6 °F 78% 30.09 in 10.0 mi ENE 3.5 mph - N/A   Scattered Clouds
8:35 AM 80.6 °F 84.6 °F 71.6 °F 74% 30.09 in 10.0 mi ENE 4.6 mph - N/A   Scattered Clouds
8:55 AM 80.6 °F 84.6 °F 71.6 °F 74% 30.09 in 10.0 mi ENE 3.5 mph - N/A   Scattered Clouds
9:15 AM 80.6 °F 85.4 °F 73.4 °F 79% 30.10 in 10.0 mi ENE 5.8 mph - N/A   Mostly Cloudy
9:35 AM 78.8 °F - 69.8 °F 74% 30.10 in 7.0 mi ESE 11.5 mph - 0.01 in Rain Rain
9:55 AM 75.2 °F - 71.6 °F 89% 30.10 in 10.0 mi NE 3.5 mph - 0.13 in   Mostly Cloudy
10:15 AM 75.2 °F - 71.6 °F 89% 30.10 in 10.0 mi ENE 4.6 mph - N/A   Scattered Clouds
10:35 AM 77.0 °F - 73.4 °F 89% 30.10 in 10.0 mi ENE 4.6 mph - N/A   Scattered Clouds
10:55 AM 78.8 °F - 73.4 °F 83% 30.10 in 10.0 mi ENE 9.2 mph - N/A   Mostly Cloudy
11:15 AM 78.8 °F - 73.4 °F 83% 30.11 in 10.0 mi East 6.9 mph - N/A   Overcast
11:35 AM 80.6 °F 84.6 °F 71.6 °F 74% 30.11 in 10.0 mi East 4.6 mph - N/A   Mostly Cloudy
11:55 AM 80.6 °F 85.4 °F 73.4 °F 79% 30.11 in 10.0 mi ESE 3.5 mph - N/A   Mostly Cloudy
12:15 PM 80.6 °F 84.6 °F 71.6 °F 74% 30.11 in 10.0 mi SSE 5.8 mph - N/A   Overcast
12:35 PM 80.6 °F 85.4 °F 73.4 °F 79% 30.12 in 10.0 mi SE 5.8 mph - N/A   Overcast
12:55 PM 80.6 °F 85.4 °F 73.4 °F 79% 30.11 in 10.0 mi SSE 12.7 mph 17.3 mph N/A Rain Light Rain
1:15 PM 71.6 °F - 68.0 °F 88% 30.12 in 1.0 mi SSW 8.1 mph 24.2 mph 0.51 in Rain Heavy Rain
1:35 PM 71.6 °F - 69.8 °F 94% 30.11 in 7.0 mi East 4.6 mph - 0.55 in Rain Light Rain
1:55 PM 73.4 °F - 69.8 °F 88% 30.10 in 10.0 mi Calm Calm - 0.57 in Rain Light Rain
2:15 PM 73.4 °F - 69.8 °F 88% 30.10 in 10.0 mi Calm Calm - N/A   Light Drizzle
2:35 PM 73.4 °F - 71.6 °F 94% 30.10 in 10.0 mi Calm Calm - N/A   Mostly Cloudy
2:55 PM 77.0 °F - 73.4 °F 89% 30.09 in 10.0 mi Calm Calm - N/A   Overcast
3:15 PM 77.0 °F - 73.4 °F 89% 30.09 in 10.0 mi Calm Calm - N/A   Mostly Cloudy
3:35 PM 80.6 °F 85.4 °F 73.4 °F 79% 30.09 in 10.0 mi Calm Calm - N/A   Scattered Clouds
3:55 PM 80.6 °F 85.4 °F 73.4 °F 79% 30.08 in 10.0 mi SE 3.5 mph - N/A   Scattered Clouds
4:15 PM 80.6 °F 85.4 °F 73.4 °F 79% 30.08 in 10.0 mi North - - N/A   Scattered Clouds
4:35 PM 80.6 °F 84.6 °F 71.6 °F 74% 30.08 in 10.0 mi North - - N/A   Mostly Cloudy
4:55 PM 80.6 °F 85.4 °F 73.4 °F 79% 30.08 in 10.0 mi North - - N/A   Scattered Clouds
5:15 PM 80.6 °F 85.4 °F 73.4 °F 79% 30.08 in 10.0 mi SE 5.8 mph - N/A   Scattered Clouds
5:35 PM 80.6 °F 85.4 °F 73.4 °F 79% 30.08 in 10.0 mi SE 3.5 mph - N/A   Scattered Clouds
5:55 PM 80.6 °F 85.4 °F 73.4 °F 79% 30.08 in 10.0 mi SSE 4.6 mph - N/A   Scattered Clouds
6:15 PM 80.6 °F 85.4 °F 73.4 °F 79% 30.07 in 10.0 mi SSE 4.6 mph - N/A   Scattered Clouds
6:35 PM 80.6 °F 85.4 °F 73.4 °F 79% 30.08 in 10.0 mi North - - N/A   Clear
6:55 PM 80.6 °F 85.4 °F 73.4 °F 79% 30.08 in 10.0 mi North - - N/A   Scattered Clouds
7:15 PM 80.6 °F 85.4 °F 73.4 °F 79% 30.09 in 10.0 mi North - - N/A   Scattered Clouds
7:35 PM 80.6 °F 85.4 °F 73.4 °F 79% 30.10 in 10.0 mi North - - N/A   Scattered Clouds
7:55 PM 78.8 °F - 73.4 °F 83% 30.10 in 10.0 mi Calm Calm - N/A   Clear
8:15 PM 78.8 °F - 73.4 °F 83% 30.11 in 10.0 mi Calm Calm - N/A   Clear
8:35 PM 78.8 °F - 73.4 °F 83% 30.11 in 10.0 mi Calm Calm - N/A   Clear
8:55 PM 77.0 °F - 73.4 °F 89% 30.11 in 10.0 mi Calm Calm - N/A   Clear
9:15 PM 77.0 °F - 73.4 °F 89% 30.12 in 10.0 mi Calm Calm - N/A   Clear
9:35 PM 77.0 °F - 73.4 °F 89% 30.12 in 10.0 mi Calm Calm - N/A   Clear
9:55 PM 77.0 °F - 73.4 °F 89% 30.13 in 10.0 mi Calm Calm - N/A   Clear
10:15 PM 77.0 °F - 73.4 °F 89% 30.13 in 10.0 mi Calm Calm - N/A   Clear
10:35 PM 77.0 °F - 73.4 °F 89% 30.13 in 10.0 mi Calm Calm - N/A   Clear
10:55 PM 75.2 °F - 71.6 °F 89% 30.13 in 10.0 mi Calm Calm - N/A   Clear
11:15 PM 77.0 °F - 73.4 °F 89% 30.13 in 10.0 mi Calm Calm - N/A   Clear
11:35 PM 77.0 °F - 73.4 °F 89% 30.13 in 10.0 mi Calm Calm - N/A   Clear
11:55 PM 77.0 °F - 73.4 °F 89% 30.13 in 10.0 mi Calm Calm - N/A   Scattered Clouds